#timestamp,LO_Frequency,Hit,StdDev 
1703887215.8,286047000.1,N
1703887235.6,286047002.1,N
1703887255.5,286047002.7,N
1703887275.3,286046999.8,N
1703887295.1,286047001.1,N
1703887315.9,286046998.2,N
1703887335.7,286046998.3,N
1703887355.5,286046998.2,N
1703887375.4,286046999.1,N
1703887395.2,286046999.0,N
1703887415.1,286046998.6,N
1703887416.0,286046998.6,N
1703887435.8,286046998.1,N
1703887455.6,286047000.8,N
1703887475.5,286047002.7,N
1703887495.3,286047002.5,N
1703887515.1,286047002.0,N
1703887535.9,286047000.1,N
1703887555.7,286046999.9,N
1703887575.6,286047000.1,N
1703887595.4,286047002.4,N
1703887615.2,286047002.1,N
1703887635.1,286047000.2,N
1703887636.0,286047000.2,N
1703887655.8,286047002.3,N
1703887675.6,286047002.1,N
1703887695.5,286047002.5,N
1703887715.3,286047001.8,N
1703887735.2,286047002.4,N
1703887755.9,286047002.1,N
1703887775.7,286047002.2,N
1703887795.6,286047004.4,N
1703887815.4,286047001.5,N
1703887835.2,286047004.3,N
1703887855.1,286047001.6,N
1703887856.0,286047001.6,N
1703887875.8,286047004.3,N
1703887895.7,286046999.7,N
1703887915.5,286047000.4,N
1703887935.3,286046998.5,N
1703887955.2,286046999.8,N
1703887975.0,286046999.7,N
1703887975.9,286046999.7,N
1703887995.7,286047002.5,N
1703888015.6,286046999.8,N
1703888035.4,286047002.8,N
1703888055.3,286047001.8,N
1703888075.1,286047002.0,N
1703888076.0,286047002.0,N
1703888095.8,286047000.0,N
1703888115.7,286047001.5,N
1703888135.5,286046999.8,N
1703888155.4,286047002.6,N
1703888175.2,286047002.3,N
1703888195.0,286047001.0,N
1703888195.9,286047001.0,N
1703888215.8,286047001.0,N
1703888235.6,286047000.8,N
1703888255.4,286047000.4,N
1703888275.3,286047002.4,N
1703888295.1,286047000.2,N
1703888315.9,286046999.8,N
1703888335.7,286047000.1,N
1703888355.5,286047002.8,N
1703888375.4,286047002.7,N
1703888395.2,286046999.7,N
1703888415.0,286046999.7,N
1703888415.9,286046999.7,N
1703888435.8,286047002.3,N
1703888455.6,286047002.4,N
1703888475.5,286047002.6,N
1703888495.3,286047000.0,N
1703888515.1,286047001.0,N
1703888535.9,286047000.8,N
1703888555.7,286047000.3,N
1703888575.5,286047002.7,N
1703888595.4,286047002.1,N
1703888615.2,286047002.8,N
1703888635.1,286047000.1,N
1703888636.0,286047000.1,N
1703888655.8,286047004.4,Y
1703888675.6,286046998.1,P
1703888695.5,286047000.6,N
1703888715.3,286047000.9,N
1703888735.2,286047002.5,N
1703888755.9,286047002.6,N
1703888775.7,286047002.3,N
1703888795.6,286047000.2,N
1703888815.4,286047002.2,N
1703888835.2,286047003.5,N
1703888855.1,286047002.1,N
1703888856.0,286047002.1,N
1703888875.8,286047000.1,N
1703888895.7,286047002.7,N
1703888915.5,286047001.5,N
1703888935.3,286047003.4,N
1703888955.2,286047003.4,N
1703888975.0,286047005.6,Y
1703888975.9,286047005.6,P
1703888995.7,286047001.5,N
1703889015.6,286047002.1,N
1703889035.4,286047004.4,N
1703889055.3,286047001.3,N
1703889075.1,286047003.8,N
1703889076.0,286047003.8,N
1703889095.8,286047003.6,N
1703889115.7,286047006.0,Y
1703889135.5,286047000.5,P
1703889155.4,286047000.5,N
1703889175.2,286046998.1,N
1703889195.0,286046997.1,N
1703889195.9,286046997.1,N
1703889215.8,286046996.5,N
1703889235.6,286046998.8,N
1703889255.4,286046998.8,N
1703889275.3,286046999.1,N
1703889295.1,286046999.3,N
1703889315.9,286046999.1,N
1703889335.7,286046999.4,N
1703889355.5,286046997.3,N
1703889375.4,286046999.6,N
1703889395.2,286046997.8,N
1703889415.0,286046995.4,N
1703889415.9,286046995.4,N
1703889435.8,286046995.3,N
1703889455.6,286046997.3,N
1703889475.5,286046997.5,N
1703889495.3,286046997.9,N
1703889515.1,286046995.2,N
1703889535.9,286046997.1,N
1703889555.7,286046999.1,N
1703889575.5,286046999.2,N
1703889595.4,286046997.3,N
1703889615.2,286046996.7,N
1703889635.1,286046997.3,N
1703889636.0,286046997.3,N
1703889655.8,286046997.4,N
1703889675.6,286046997.9,N
1703889695.5,286046994.9,Y
1703889715.3,286046997.0,P
1703889735.1,286046999.5,N
1703889755.9,286046999.2,N
1703889775.7,286046998.2,N
1703889795.6,286046999.0,N
1703889815.4,286046999.6,N
1703889835.2,286046999.1,N
1703889855.1,286046998.8,N
1703889856.0,286046998.8,N
1703889875.8,286047000.7,N
1703889895.7,286046998.2,N
1703889915.5,286046999.8,N
1703889935.4,286046999.9,N
1703889955.2,286046999.8,N
1703889975.0,286047000.3,N
1703889975.9,286047000.3,N
1703889995.8,286047000.0,N
1703890015.6,286046999.7,N
1703890035.5,286047002.8,N
1703890055.3,286047002.1,N
1703890075.1,286047002.5,N
1703890095.9,286047002.7,N
1703890115.7,286047000.2,N
1703890135.6,286047000.6,N
1703890155.4,286047000.0,N
1703890175.2,286046999.9,N
1703890195.1,286047000.5,N
1703890196.0,286047000.5,N
1703890215.8,286047000.9,N
1703890235.7,286047002.8,N
1703890255.5,286047001.9,N
1703890275.3,286047001.3,N
1703890295.2,286047002.1,N
1703890315.0,286047002.2,N
1703890315.9,286047002.2,N
1703890335.8,286046999.9,N
1703890355.6,286046999.8,N
1703890375.4,286047000.7,N
1703890395.3,286047002.1,N
1703890415.1,286047002.6,N
1703890435.9,286047002.6,N
1703890455.7,286047002.3,N
1703890475.5,286047001.8,N
1703890495.4,286047002.4,N
1703890515.2,286047000.0,N
1703890535.0,286047001.0,N
1703890535.9,286047001.0,N
1703890555.8,286046998.5,N
1703890575.6,286047000.7,N
1703890595.5,286046998.5,N
1703890615.3,286047001.2,N
1703890635.1,286046998.3,N
1703890655.9,286047001.1,N
1703890675.7,286047000.1,N
1703890695.5,286047002.8,N
1703890715.4,286047000.5,N
1703890735.2,286047001.0,N
1703890755.1,286047001.2,N
1703890756.0,286047001.2,N
1703890775.8,286046999.3,N
1703890795.6,286047000.4,N
